www.pogodaiklimat.ru
Время
(UTC), дата
18 8.08
21 8.08
00 9.08
03 9.08
06 9.08
09 9.08
12 9.08
15 9.08
18 9.08
21 9.08
00 10.08
03 10.08
06 10.08
09 10.08
12 10.08
15 10.08
18 10.08
21 10.08
00 11.08
03 11.08
06 11.08
09 11.08
12 11.08
15 11.08
18 11.08
21 11.08
00 12.08
03 12.08
06 12.08
09 12.08
12 12.08
15 12.08
18 12.08
21 12.08
00 13.08
03 13.08
06 13.08
09 13.08
12 13.08
15 13.08
18 13.08
21 13.08
00 14.08
03 14.08
06 14.08
09 14.08
12 14.08
15 14.08
18 14.08
21 14.08
00 15.08
03 15.08
06 15.08
09 15.08
12 15.08
15 15.08
Ветер
(напр.,м/с)
Видим. Явления Облачность Т
(С)
Тd
(С)
f
(%)
Тe
(С)
Тes
(С)
Комфортность P
(гПа)
Po
(гПа)
Тmin
(С)
Tmax
(С)
R
(мм)
R24
(мм)
S
(см)
ЮЗ 2 10 км ливневой дождь 10/8 1000 м
[Cb cap Ac As]
+12.0 +11.4 96 +11 +11 999.0 912.1
штиль 0 10 км в посл. час ливневой дождь 10/8 1000 м
[Cb cap Ac As]
+11.8 +11.3 97 +11 +11 998.0 911.1
штиль 0 10 км в посл. час ливневой дождь 10/8 1000 м
[Cb cap Ac As]
+12.5 +12.0 97 +12 +12 998.1 911.4 +11.7 10
ЮЗ 1 10 км осадки на расстоянии 10/6 1000 м
[Cb cap Ac lent Ci sp]
+17.1 +12.2 73 +18 +21 996.9 911.6
Ю 1 10 км в посл. час ливневой дождь 10/6 1000 м
[Cb cap Ac lent Ci sp]
+19.8 +12.8 64 +23 +26 комфорт 995.8 911.4
ЮЗ 2 10 км слаб. ливневой дождь 10/8 1000 м
[Cb cap Ac As]
+15.9 +13.6 86 +16 +16 998.3 912.7
ЮЗ 2 50 км {ливн. дождь} 9/6 1000 м
[Cb cap Ac lent Ci sp]
+15.7 +13.6 87 +16 +16 999.3 913.5 +20.7 4
ЮЗ 2 50 км 8/4 1000 м
[Cb cap Ac lent Ci sp]
+14.8 +13.0 89 +14 +14 1000.4 914.2
штиль 0 50 км 10/4 1000 м
[Cb cap Ac lent Ci sp]
+14.2 +12.8 91 +14 +14 1001.1 914.7
ЮЗ 1 10 км ливневой дождь 10/8 1000 м
[Cb cap Ac As]
+13.4 +12.8 96 +13 +13 1001.5 914.8
ЮЗ 1 10 км в посл. час ливневой дождь 10/8 1000 м
[Cb cap Ac lent Ci fib]
+14.9 +14.3 96 +15 +16 1001.9 915.6 +13.3 8
З 3 50 км 10/8 1000 м
[Cb cap Ac lent Ci fib]
+17.4 +13.3 77 +17 +18 1002.0 916.4
З 4 50 км {ливн. дождь} 9/5 1000 м
[Cb cap Ac lent Ci fib]
+19.7 +13.9 69 +22 +24 комфорт 1001.0 916.1
СЗ 1 50 км в посл. час ливневой дождь 10/8 1000 м
[Cb cap Ac lent Ci fib]
+18.1 +14.4 79 +19 +20 1002.2 916.8
СВ 1 10 км слаб. ливневой дождь 9/6 1000 м
[Cb cap Ac lent Ci fib]
+16.5 +14.8 90 +17 +17 1004.1 918.1 +20.5 2
З 1 50 км {ливн. дождь} 9/4 1000 м
[Cb cap Ac lent Ci fib]
+14.3 +13.5 95 +15 +15 1006.1 919.3
З 1 50 км {ливн. дождь} 9/4 1000 м
[Cb cap Ac lent Ci fib]
+13.4 +12.5 94 +13 +13 1006.8 919.7
ЮЗ 1 10 км туман местами 10/6 1000 м
[Sc diur, vesp Ac lent Ci fib]
+12.7 +12.1 96 +13 +13 1007.9 920.4
З 2 10 км туман местами 10/8 1000 м
[Cu Sc Ac As]
+13.3 +12.2 93 +13 +13 1008.9 921.5 +12.4 0.6
З 1 50 км 8/6 1000 м
[Cu med, cong Ac lent Ci fib]
+17.5 +13.9 79 +19 +23 1008.1 922.1
З 2 50 км 8/3 1000 м
[Cu med, cong Ci fib]
+23.0 +11.9 50 +26 +34 жарко 1004.5 920.2
СВ 1 50 км 8/4 1000 м
[Cu med, cong Ci fib]
+22.7 +14.1 58 +26 +29 жарко 1004.6 920.3
СЗ 1 50 км 6/0
[Ci fib]
+18.2 +15.6 85 +20 +20 1006.3 920.6 +24.3
ЮЗ 1 50 км 3/0
[Ci fib]
+13.4 +12.7 96 +13 +13 1009.7 922.3
З 1 10 км туман местами ясно +10.7 +10.2 97 +10 +10 1010.3 921.9
штиль 0 500 м туман ?/? +10.7 +10.3 97 +10 +10 1010.3 921.9
СВ 2 4000 м дымка {туман} 10/6 1000 м
[Sc Ac lent Ci fib]
+12.2 +11.7 97 +11 +12 1010.1 922.3 +9.9
В 1 10 км дымка 10/4 1000 м
[Cb cap Ac lent Ci fib]
+15.4 +12.6 83 +16 +20 1008.4 921.7
ЮЗ 2 50 км 10/3 1000 м
[Cb cap Ac lent Ci fib]
+19.4 +14.6 74 +22 +26 комфорт 1005.6 920.3
В 2 50 км 10/4 1000 м
[Cb cap Ac lent Ci fib]
+22.1 +15.4 66 +26 +27 душно 1003.3 919.0
СВ 3 10 км слаб. ливневой дождь 10/6 1000 м
[Cb cap Ac As Ci fib]
+16.8 +15.0 89 +17 +17 1005.2 919.2 +23.0 0.4
штиль 0 50 км 8/3 1000 м
[Sc Ac lent Ci fib]
+13.6 +12.8 95 +13 +13 1005.4 918.5
штиль 0 10 км туман местами 8/3 1000 м
[Sc Ac lent Ci fib]
+13.1 +12.6 97 +13 +13 1004.1 917.1
штиль 0 10 км туман местами 10/8 1000 м
[Cu Sc Ac As]
+13.5 +13.0 97 +13 +13 1003.2 916.4
В 1 500 м туман ?/? +14.3 +13.7 96 +15 +15 1002.7 916.2 +13.0
ЮВ 1 50 км {туман} 10/4 1000 м
[Sc Ac trans Ci sp]
+18.0 +14.6 81 +19 +23 1000.4 915.1
ЮЗ 1 50 км {туман} 9/5 1000 м
[Cb cap Ac trans Ci sp]
+24.3 +13.3 50 +26 +31 жарко 996.1 912.9
В 1
{13}
4000 м гроза, ливневой дождь 10/8 1000 м
[Cb cap Ac As]
+15.0 +13.6 91 +15 +16 999.8 913.7
штиль 0 50 км {гроза, ливн. дождь} 9/3 1000 м
[Cb cap Ac lent Ci fib]
+15.9 +14.8 93 +16 +16 1000.0 914.2 +25.0 12
С 1 500 м туман ?/? +13.7 +13.2 97 +14 +14 1001.0 914.4
СЗ 1 500 м туман ?/? +12.6 +12.2 97 +12 +12 1002.5 915.5
З 1 500 м туман ?/? +12.7 +12.2 97 +13 +13 1002.9 915.8
ЮЗ 2 10 км в посл. час туман 10/10 600 м
[St]
+14.7 +13.4 92 +14 +14 1003.3 916.8 +12.1
ЮЗ 2 50 км 8/3 1000 м
[Cu med, cong Ci fib]
+19.7 +15.1 75 +22 +29 комфорт 1001.1 916.3
СВ 2 50 км 8/5 1000 м
[Cb cap Ci fib]
+22.8 +15.5 63 +27 +33 душно 998.3 914.6
З 3 50 км 8/5 1000 м
[Cb cap Ci fib]
+23.7 +14.5 56 +26 +28 жарко 998.0 914.5
СВ 1 50 км 9/4 1000 м
[Cb cap Ac trans Ci sp]
+19.3 +14.1 72 +22 +22 комфорт 1001.3 916.3 +25.3
В 1 50 км 8/3 1000 м
[Cb cap Ac trans Ci sp]
+14.1 +13.0 93 +14 +14 1004.0 917.3
штиль 0 10 км туман местами 6/3 1000 м
[Cu hum Ci sp]
+11.9 +11.4 97 +11 +11 1005.4 917.8
З 1 4000 м дымка 10/10 600 м
[St]
+12.4 +11.6 95 +12 +12 1006.0 918.6
С 1 500 м туман ?/? +13.2 +12.7 97 +13 +13 1006.8 919.6 +11.5
ЮЗ 3 50 км {туман, снег} 9/4 1000 м
[Cb cap Ac lent Ci fib]
+17.7 +14.4 81 +18 +21 1005.5 919.7
Ю 2 50 км в посл. час ливневой дождь {туман} 9/6 1000 м
[Cb cap Ac lent Ci fib]
+21.8 +14.5 63 +25 +28 комфорт 1003.3 918.8
ЮЗ 2 50 км 9/3 1000 м
[Cb cap Ac lent Ci fib]
+22.3 +14.7 62 +26 +28 жарко 1002.6 918.4
ЮВ 1 50 км 8/3 1000 м
[Cb cap Ci fib]
+19.0 +15.8 82 +21 +21 комфорт 1005.0 919.7 +22.8 1
СВ 1 50 км 4/0
[Ac lent Ci fib]
+14.1 +12.9 92 +14 +14 1008.0 920.9
Местоположение метеостанции Красный Чикой (Забайкальский край, Россия): широта 50.37 долгота 108.70 высота над уровнем моря 771 м.
В архиве по умолчанию представлена погода в Красном Чикое за последнюю неделю. Архивные данные за месяц целиком и за предыдущие месяцы, начиная с января 2011 года, Вы можете получить, выбрав интересующий диапазон дат из раскрывающегося списка и нажав кнопку "Найти!".
*Определитесь, кто Вы:
Внимание! Время в таблицах - всемирное. Для получения местного времени необходимо прибавить поправку, которая равна 9 ч.
Смотрите также архив погоды в соседних городах и на ближайших метеорологических станциях:
Партнеры нашего сайта:      
Пояснения к столбцам:
  • Ветер - указаны скорость ветра в м/с - средняя за 10 мин, порывы в срок и между сроками (в фигурных скобках) и направление, откуда дует ветер: С - северный,
  • СВ - северо-восточный, В - восточный, ЮВ - юго-восточный, Ю - южный, ЮЗ - юго-западный, З - западный, СЗ - северо-западный.
  • Видимость - горизонтальная дальность видимости в метрах или километрах. При видимости от 1 до 10 км при отсутствии осадков обычно наблюдается дымка, при ухудшении видимости до 1 км и менее - туман. В сухую погоду видимость может ухудшаться дымом, пылью или мглою.
  • Явления - указаны атмосферные явления, наблюдавшиеся в срок или в последний час перед сроком; фигурными скобками обозначены явления, наблюдавшиеся между сроками (за 1-3 часа до срока); квадратными скобками обозначены град или гололедные отложения с указанием их диаметра в мм.
  • Облачность - указаны через наклонную черту общая и нижняя облачность в баллах и высота нижней границы облаков в метрах; квадратными скобками обозначены формы облаков: Ci - перистые, Cs - перисто-слоистые, Cc - перисто-кучевые, Ac - высококучевые, As - высокослоистые, Sc - слоисто-кучевые, Ns - слоисто-дождевые, Cu - кучевые, Cb - кучево-дождевые. Подробнее классификацию облаков см. в Атласе облаков (PDF).
  • T - Температура воздуха - температура, измеренная на высоте 2 м над землей.
  • Td - Температура точки росы - температура, при понижении до которой содержащийся в воздухе водяной пар достигнет насыщения.
  • f - Относительная влажность воздуха - влажноcть воздуха, измеренная на высоте 2 м над землей.
  • Te - Эффективная температура - температура, которую ощущает одетый по сезону человек в тени. Характеристика душности погоды. При расчете учитывается влияние влажности воздуха и скорости ветра на теплоощущения человека.
  • Tes - Эффективная температура на солнце - температура, которую ощущает человек, с поправкой на солнечный нагрев. Характеристика знойности погоды. Зависит от высоты солнца над горизонтом, облачности и скорости ветра. Ночью, в пасмурную погоду, а также при ветре 12 м/с и более поправка равна нулю.
  • P - Атмосферное давление - приведенное к уровню моря атмосферное давление.
  • Po - Атмосферное давление - измеренное на уровне метеостанции атмосферное давление.
  • Tmin - Минимальная температура - минимум температуры воздуха на высоте 2 м над землей.
  • Tmax - Максимальная температура - максимум температуры воздуха на высоте 2 м над землей.
  • R - Количество осадков - Количество выпавших осадков за период времени, мм. При наведении курсора мыши на число - период времени, за который выпало указанное количество осадков.
  • R24 - Количество осадков - Количество выпавших осадков за 24 часа, мм.
  • S - Снежный покров - Высота снежного покрова, см. При наведении курсора мыши на число - состояние снежного покрова и степень покрытия местности в баллах.